Weather in Cuenca

Ecuador     2˚53′52″S   79˚01′33″W
temp.,
°C
wind,
m/s
gust,
m/s
humid.,
%
clouds,
%
prec.,
mm/h
press.,
hPa
HPBL,
m
3 december, thu
thu301:00+8˚sse1195100 0.1 101423
04:00+8˚ssw0196100 0.0 101222
07:00+9˚ese119593 0.0 101463
10:00+13˚e228095 0.1 1014399
13:00+17˚ese337066 1.8 1011942
16:00+15˚sw448351 3.8 1009555
19:00+11˚ssw579468 5.6 1011251
22:00+10˚sw2496100 1.4 1014173
4 december, fri
fri401:00+10˚ssw1195100 2.1 101484
04:00+10˚se1195100 0.1 101369
07:00+11˚nne1293100 0.3 1014129
10:00+15˚ene227596 0.6 1015755
13:00+16˚ese337380 3.8 1012848
16:00+15˚ssw338059 4.2 1010579
19:00+11˚ssw229479 6.4 101290
22:00+11˚sw2296100 4.3 1016176
5 december, sat
sat501:00+10˚sw1195100 7.3 1015110
04:00+10˚wsw1195100 0.2 101495
07:00+11˚wsw1192100 0.3 1016129
10:00+14˚ene2280100 0.8 1017613
13:00+15˚se3378100 4.4 1014699
16:00+13˚se2283100 2.8 1013411
19:00+11˚se1196100 5.1 1015110
22:00+11˚ene0097100 4.0 101788
6 december, sun
sun601:00+10˚e1197100 4.4 1015122
04:00+10˚e1196100 0.3 101472
07:00+10˚ne1195100 0.7 1015179
10:00+13˚ne338295 0.6 1016602
13:00+13˚ese228198 2.2 1013585
16:00+13˚ese338480 2.3 1011411
19:00+11˚e129590 3.3 101490
22:00+10˚e129694 0.3 1016128
7 december, mon
mon701:00+10˚e119794 0.3 101499
04:00+9˚ene119798 0.0 101399
07:00+9˚ene119582 0.0 1015103
10:00+13˚ne337793 0.3 1015694
13:00+16˚e336792 0.9 10121027
16:00+15˚se237499 1.3 1010751
19:00+11˚sse229182 2.3 101336
22:00+9˚e119687 0.1 101636